Address 0x4ee98b27eef58844e460922ec9da7c05d32f284a 5

 
 
Txn Hash Method
Block
From
To
Value [Txn Fee]
0x862f9c9d71f1755eeb30b577b05c3b8b496eea3ee9c26a41f7bfd0cd088ff55cWithdraw188007022021-09-06 7:01:08299 days 7 hrs ago0x4ee98b27eef58844e460922ec9da7c05d32f284aOUT Wrapped BTC: WBTC Token0 MATIC0.00040603216.5
0xc5ac22043da2755cb8017999a6c692c389705391f5b9fcd75f63174ecb447758Withdraw188006952021-09-06 7:00:26299 days 7 hrs ago0x4ee98b27eef58844e460922ec9da7c05d32f284aOUT USD Coin0 MATIC0.00034526713
0x244b08f6dfb49d17ab5a3a0c40f723f6d7f37620155ee750dfa1151fad003945Swap Exact Token...188005352021-09-06 6:50:16299 days 7 hrs ago0x4ee98b27eef58844e460922ec9da7c05d32f284aOUT QuickSwap: Router0 MATIC0.0001025911
0xa3033bafd53abdf9c86c9fc29969311418082a15f730d2531fc5e5621e1ec9a5Remove Liquidity...188004932021-09-06 6:48:48299 days 7 hrs ago0x4ee98b27eef58844e460922ec9da7c05d32f284aOUT QuickSwap: Router0 MATIC0.0001985361
0x78e2edb805921b9e59663741f2446a59b1454da239b411ff8599208b55e900d0Exit188004562021-09-06 6:47:34299 days 7 hrs ago0x4ee98b27eef58844e460922ec9da7c05d32f284aOUT 0x8f2ac4ec8982bf1699a6eed696e204fa2ccd5d910 MATIC0.0003077523
0x94c9a756e605d28009ecf7cd925b78723b1aee2924110074f09f2cd0edb4c937Stake With Permi...185055582021-08-29 1:51:54307 days 12 hrs ago0x4ee98b27eef58844e460922ec9da7c05d32f284aOUT 0x8f2ac4ec8982bf1699a6eed696e204fa2ccd5d910 MATIC0.0001053571
0xada1ad504e62f459a666a5d6fcda72208cc2f432a90b80ded96675baf6d8aea8Zap In185055042021-08-29 1:49:12307 days 12 hrs ago0x4ee98b27eef58844e460922ec9da7c05d32f284aOUT Zapper.Fi: Quickswap Zap In0 MATIC0.0005915622
0x7ac6ffe819489a7267cb281ddf0c1ddede47d275476999d6e4001e68eff62c17Approve185054732021-08-29 1:48:10307 days 12 hrs ago0x4ee98b27eef58844e460922ec9da7c05d32f284aOUT USD Coin0 MATIC0.000116222
0x93db40d02d849ab71a1edada0b19164ea9965b0f8cc4dbbb7d98a81faae68d33Zap Out185053962021-08-29 1:45:28307 days 12 hrs ago0x4ee98b27eef58844e460922ec9da7c05d32f284aOUT Zapper.Fi: Quickswap Zap Out0 MATIC0.0055820964
0x3df3f09a7abf26f8913af1bfad9d099815b61062d1cf8bb6e0ea96705688b041Transfer*185052772021-08-29 1:41:22307 days 12 hrs ago0x4ee98b27eef58844e460922ec9da7c05d32f284aOUT 0x853ee4b2a13f8a742d64c8f088be7ba2131f670d0 MATIC0.0001842964
0xddf70c7db2bfed5f3816afc0d0a9ac336c6a15793d1e17f6c7a2eb31f2cf7989Exit185052292021-08-29 1:39:46307 days 12 hrs ago0x4ee98b27eef58844e460922ec9da7c05d32f284aOUT 0x4a73218ef2e820987c59f838906a82455f42d98b0 MATIC0.0012619410.000000001
0x89c64929534a477b4e72977e3e2a893c236b0095a2760cb569215ea5c3b89b24Stake With Permi...182254482021-08-21 8:26:57315 days 5 hrs ago0x4ee98b27eef58844e460922ec9da7c05d32f284aOUT 0x4a73218ef2e820987c59f838906a82455f42d98b0 MATIC0.0004102443
0x94a08ccbe5657b3f3f9e1dd029b602010b7727f362458eb8628512020041bd99Stake With Permi...182253762021-08-21 8:24:29315 days 5 hrs ago0x4ee98b27eef58844e460922ec9da7c05d32f284aOUT 0x8f2ac4ec8982bf1699a6eed696e204fa2ccd5d910 MATIC0.002276299222.2
0xe03f20ec5e8378e88ec70ab4d54e7d83d4343ec63195983515b95ae42b5742aaZap In182253192021-08-21 8:22:31315 days 5 hrs ago0x4ee98b27eef58844e460922ec9da7c05d32f284aOUT Zapper.Fi: Quickswap Zap In0 MATIC0.0005428482
0x0a538268e3899b5fcaa3fe4bff3b8b397c230d452f47076df8fb82a70f4e247eApprove182253022021-08-21 8:21:57315 days 5 hrs ago0x4ee98b27eef58844e460922ec9da7c05d32f284aOUT Wrapped BTC: WBTC Token0 MATIC0.0001034482
0x9d313a98bfced88cefbfa2cda4eb6e0893174b85f5cc0b92c422eca856fc2677Add Liquidity182252692021-08-21 8:20:47315 days 5 hrs ago0x4ee98b27eef58844e460922ec9da7c05d32f284aOUT QuickSwap: Router0 MATIC0.000175711
0x435e9268d618777eec5e35d1c5465dbf8ef0c40cffc09d976032bd5ab63b8d34Zap In181430092021-08-19 3:17:08317 days 10 hrs ago0x4ee98b27eef58844e460922ec9da7c05d32f284aOUT Zapper.Fi: Quickswap Zap In0 MATIC0.0068227110
0x27787b80e27df104ba55edd540950d80b35afa59c3af885bcce8900f149dbed3Zap In181429542021-08-19 3:15:14317 days 10 hrs ago0x4ee98b27eef58844e460922ec9da7c05d32f284aOUT Zapper.Fi: Quickswap Zap In0 MATIC0.0123037515
0xeafe0c5536f5ff284868715c18b1137e11a19e5974147b0c701cfd5a38ef7c4fApprove181428962021-08-19 3:13:14317 days 10 hrs ago0x4ee98b27eef58844e460922ec9da7c05d32f284aOUT Mapper: USDT Stablecoin0 MATIC0.0005173610
0xe2e279d0d611172fa380915a0c6710a4bb5e05bd2c059ed474cc34a525ca1ca4Withdraw168384902021-07-14 3:57:13353 days 10 hrs ago0x4ee98b27eef58844e460922ec9da7c05d32f284aOUT Mapper: USDT Stablecoin0 MATIC0.0000246081
0xda03405549e0d97e73dd34ea6ca3635ffe712607a86c902c508eecdc5626eb51Swap Exact ETH F...168384522021-07-14 3:55:53353 days 10 hrs ago0x4ee98b27eef58844e460922ec9da7c05d32f284aOUT QuickSwap: Router3,793 MATIC0.0001811951
0xbb7388e23a82b1b4ce5cd320eb102fd52b0dbd4bb7d4c46004cdbfe321de00c1Transfer165182372021-07-05 9:41:50362 days 4 hrs ago0x4ee98b27eef58844e460922ec9da7c05d32f284aOUT Wrapped Ether0 MATIC0.0000370061
0xc8cb8fe4d10fba7e83f51987fe9aee9cc440923d4865f94897dfb22d6ccd4dfeTransfer165182292021-07-05 9:41:34362 days 4 hrs ago0x4ee98b27eef58844e460922ec9da7c05d32f284aOUT Wrapped BTC: WBTC Token0 MATIC0.0000423061
0x8bd71721f33363cb3e5ed353dabe66edbc443eb600dae89c673b3ffcd67e94ccTransfer165181982021-07-05 9:40:28362 days 4 hrs ago0x4ee98b27eef58844e460922ec9da7c05d32f284aOUT Mapper: USDT Stablecoin0 MATIC0.0000423181
0xb074528be7b13ef0891dce8c0f3440f96d65596322a8c3c7f57a20af7517f182Transfer165181512021-07-05 9:38:54362 days 4 hrs ago0x4ee98b27eef58844e460922ec9da7c05d32f284aOUT USD Coin0 MATIC0.0000485641
[ Download CSV Export 
Latest 3 internal transactions
Parent Txn Hash Block From To Value
0x27513426f2a40aa473338d6c6caa7e0df32280f612e8ed847b70b9369b76317f165179472021-07-05 9:31:50362 days 4 hrs ago QuickSwap: Router0x4ee98b27eef58844e460922ec9da7c05d32f284a3,768.159990811235038762 MATIC
0x82864aec80b73c150e8cbc7951df01a027890b698af0c6ac8a582501871bb17d160159112021-06-22 12:12:45375 days 1 hr ago Polygon: WMATIC Token0x4ee98b27eef58844e460922ec9da7c05d32f284a45.301651356445864896 MATIC
0xb10f863d7fb34cb13a2f9540e57c0b947ad6f8820a33613fe981577c89cf6143160005282021-06-22 2:32:09375 days 11 hrs ago Polygon: WMATIC Token0x4ee98b27eef58844e460922ec9da7c05d32f284a3,636.211816105762066386 MATIC
[ Download CSV Export 
Loading

Contract Name:
0 MATIC

Compiler Version
0

Optimization Enabled:
0 MATIC

Other Settings:
-NA-
Block Transaction Gas Used Reward
Age Block Fee Address BC Fee Address Voting Power Jailed Incoming
Block Uncle Number Difficulty Gas Used Reward
Loading
Loading
Make sure to use the "Vote Down" button for any spammy posts, and the "Vote Up" for interesting conversations.